2023/01/29 00:00:00,47.2,-4.1
2023/01/29 00:10:00,47.5,-3.9
2023/01/29 00:20:00,47.6,-4.0
2023/01/29 00:30:00,47.8,-4.0
2023/01/29 00:40:00,47.6,-3.9
2023/01/29 00:50:00,47.3,-4.0
2023/01/29 01:00:00,47.2,-3.8
2023/01/29 01:10:00,47.3,-4.3
2023/01/29 01:20:00,47.3,-4.3
2023/01/29 01:30:00,47.3,-4.1
2023/01/29 01:40:00,47.2,-3.9
2023/01/29 01:50:00,47.7,-3.8
2023/01/29 02:00:00,47.9,-3.8
2023/01/29 02:10:00,47.9,-4.1
2023/01/29 02:20:00,47.7,-4.3
2023/01/29 02:30:00,47.6,-3.9
2023/01/29 02:40:00,47.6,-3.7
2023/01/29 02:50:00,47.9,-3.9
2023/01/29 03:00:00,47.9,-3.8
2023/01/29 03:10:00,47.9,-4.2
2023/01/29 03:20:00,48.0,-4.5
2023/01/29 03:30:00,48.0,-4.3
2023/01/29 03:40:00,48.0,-4.1
2023/01/29 03:50:00,47.9,-4.3
2023/01/29 04:00:00,47.8,-4.2
2023/01/29 04:10:00,47.8,-4.1
2023/01/29 04:20:00,47.7,-4.5
2023/01/29 04:30:00,47.7,-4.4
2023/01/29 04:40:00,48.0,-4.6
2023/01/29 04:50:00,48.0,-4.6
2023/01/29 05:00:00,47.9,-4.6
2023/01/29 05:10:00,47.7,-4.4
2023/01/29 05:20:00,47.9,-3.6
2023/01/29 05:30:00,48.1,-4.3
2023/01/29 05:40:00,48.0,-4.3
2023/01/29 05:50:00,47.9,-4.3
2023/01/29 06:00:00,47.9,-3.9
2023/01/29 06:10:00,47.6,-4.2
2023/01/29 06:20:00,47.4,-4.3
2023/01/29 06:30:00,47.7,-4.0
2023/01/29 06:40:00,47.9,-3.8
2023/01/29 06:50:00,47.8,-4.0
2023/01/29 07:00:00,47.7,-3.9
2023/01/29 07:10:00,47.9,-3.9
2023/01/29 07:20:00,48.1,-3.6
2023/01/29 07:30:00,48.0,-3.7
2023/01/29 07:40:00,47.9,-3.4
2023/01/29 07:50:00,47.9,-3.2
2023/01/29 08:00:00,48.2,-2.9
2023/01/29 08:10:00,48.4,-2.6
2023/01/29 08:20:00,48.3,-2.4
2023/01/29 08:30:00,48.3,-2.1
2023/01/29 08:40:00,48.2,-2.0
2023/01/29 08:50:00,48.3,-2.0
2023/01/29 09:00:00,48.2,-1.9
2023/01/29 09:10:00,48.2,-2.1
2023/01/29 09:20:00,48.1,-2.1
2023/01/29 09:30:00,48.0,-0.7
2023/01/29 09:40:00,47.9,-0.9
2023/01/29 09:50:00,47.8,-0.1
2023/01/29 10:00:00,47.2, 1.6
2023/01/29 10:10:00,47.0, 1.6
2023/01/29 10:20:00,46.4, 3.5
2023/01/29 10:30:00,45.9, 5.1
2023/01/29 10:40:00,45.7, 4.4
2023/01/29 10:50:00,44.5, 3.1
2023/01/29 11:00:00,44.2, 4.2
2023/01/29 11:10:00,43.8, 3.9
2023/01/29 11:20:00,43.7, 3.2
2023/01/29 11:30:00,43.0, 3.9
2023/01/29 11:40:00,42.5, 3.3
2023/01/29 11:50:00,41.8, 5.6
2023/01/29 12:00:00,41.4, 4.4
2023/01/29 12:10:00,41.1, 4.8
2023/01/29 12:20:00,40.3, 6.2
2023/01/29 12:30:00,40.1, 4.5
2023/01/29 12:40:00,39.4, 6.0
2023/01/29 12:50:00,39.1, 5.0
2023/01/29 13:00:00,39.1, 3.7
2023/01/29 13:10:00,38.7, 3.6
2023/01/29 13:20:00,38.5, 8.7
2023/01/29 13:30:00,37.9, 8.3
2023/01/29 13:40:00,37.0, 6.4
2023/01/29 13:50:00,36.4, 6.3
2023/01/29 14:00:00,35.6, 7.1
2023/01/29 14:10:00,35.6, 5.3
2023/01/29 14:20:00,35.7, 4.1
2023/01/29 14:30:00,35.4, 4.5
2023/01/29 14:40:00,35.4, 2.7
2023/01/29 14:50:00,35.3, 2.4
2023/01/29 15:00:00,35.1, 3.1
2023/01/29 15:10:00,35.0, 4.1
2023/01/29 15:20:00,34.7, 4.6
2023/01/29 15:30:00,34.7, 3.5
2023/01/29 15:40:00,34.7, 2.4
2023/01/29 15:50:00,34.7, 1.9
2023/01/29 16:00:00,34.5, 1.5
2023/01/29 16:10:00,34.3, 0.9
2023/01/29 16:20:00,34.3, 0.7
2023/01/29 16:30:00,34.6, 0.7
2023/01/29 16:40:00,34.8, 0.6
2023/01/29 16:50:00,34.9, 0.4
2023/01/29 17:00:00,34.9, 0.3
2023/01/29 17:10:00,34.6, 0.1
2023/01/29 17:20:00,34.3,-0.2
2023/01/29 17:30:00,34.3,-0.4
2023/01/29 17:40:00,34.3,-0.5
2023/01/29 17:50:00,34.2,-0.7
2023/01/29 18:00:00,34.0,-0.4
2023/01/29 18:10:00,33.7,-0.5
2023/01/29 18:20:00,33.6,-0.6
2023/01/29 18:30:00,33.6,-0.6
2023/01/29 18:40:00,33.5,-0.7
2023/01/29 18:50:00,33.5,-0.5
2023/01/29 19:00:00,33.7,-0.8
2023/01/29 19:10:00,33.7,-1.0
2023/01/29 19:20:00,33.7,-0.8
2023/01/29 19:30:00,33.6,-1.1
2023/01/29 19:40:00,33.6,-1.2
2023/01/29 19:50:00,33.7,-1.2
2023/01/29 20:00:00,33.8,-1.2
2023/01/29 20:10:00,33.9,-1.6
2023/01/29 20:20:00,33.9,-2.1
2023/01/29 20:30:00,33.9,-2.1
2023/01/29 20:40:00,33.9,-2.3
2023/01/29 20:50:00,34.0,-2.7
2023/01/29 21:00:00,33.9,-2.9
2023/01/29 21:10:00,33.8,-2.8
2023/01/29 21:20:00,33.8,-3.1
2023/01/29 21:30:00,33.8,-3.2
2023/01/29 21:40:00,33.9,-3.5
2023/01/29 21:50:00,33.8,-3.4
2023/01/29 22:00:00,33.9,-3.1
2023/01/29 22:10:00,34.0,-3.6
2023/01/29 22:20:00,33.9,-3.9
2023/01/29 22:30:00,33.8,-3.9
2023/01/29 22:40:00,33.8,-3.6
2023/01/29 22:50:00,33.7,-3.7
2023/01/29 23:00:00,33.7,-3.6
2023/01/29 23:10:00,33.6,-3.6
2023/01/29 23:20:00,33.5,-4.0
2023/01/29 23:30:00,33.4,-4.2
2023/01/29 23:40:00,33.5,-4.4
2023/01/29 23:50:00,33.6,-4.4
